Location: Campillo
(40.8621°N, 4.2488°W)
Time: 11:46:07
(UTC+00:00)

Cosmos 1417 Rocket - Pass Details

Date: 11 May 2021
Orbit: 951 x 999 km, 83.0° (Epoch: 13 June)

Event Time Altitude Azimuth Distance (km) Brightness Sun altitude
Rises 20:04:20 0° 181° (S) 3,662 7.2 -7.5°
Reaches altitude 10° 20:06:51 10° 180° (S) 2,711 6.5 -7.9°
Maximum altitude 20:13:03 79° 95° (E) 988 4.5 -8.9°
Drops below altitude 10° 20:19:13 10° 10° (N) 2,699 7.2 -9.9°
Sets 20:21:42 0° 9° (N) 3,644 7.9 -10.3°
